Regional Weather Roundup
Issued by NWS Green Bay, WI

Home | Current Version | Previous Version | Text Only | Print | Product List | Glossary On
Versions: 1 2 3 4 5 6 7 8 9 10 11 12 13 14 15 16 17 18 19 20 21 22 23 24 25 26 27 28 29 30 31 32 33 34 35 36 37 38 39 40 41 42 43 44 45 46 47 48 49 50
000
ASUS43 KGRB 260500
RWRGRB

NORTH-CENTRAL AND NORTHEAST WISCONSIN REGIONAL WEATHER ROUNDUP
NATIONAL WEATHER SERVICE GREEN BAY WI
1200 AM CDT WED APR 26 2017

WIZ005-009-010>012-018-019-260600-
NORTH CENTRAL WISCONSIN

CITY           SKY/WX    TMP DP  RH WIND       PRES   REMARKS
IRONWOOD       LGT RAIN  33  32  96 NE8G17    29.72F
MANITOWISH WTR NOT AVBL
ARBOR VITAE    NOT AVBL
EAGLE RIVER    NOT AVBL
LAND O LAKES   NOT AVBL
RHINELANDER    LGT RAIN  54  54 100 NE8       29.60F
PHILLIPS       NOT AVBL
ANTIGO         NOT AVBL
TOMAHAWK       NOT AVBL
MERRILL        NOT AVBL
$$

WIZ013-073-260600-
NORTHEAST WISCONSIN

CITY           SKY/WX    TMP DP  RH WIND       PRES   REMARKS
IRON MOUNTAIN  CLOUDY    51  47  86 VRB3      29.63F
MARINETTE      CLOUDY    49  43  80 E7        29.64F
$$

WIZ017-030-035>037-045-260600-
CENTRAL WISCONSIN

CITY           SKY/WX    TMP DP  RH WIND       PRES   REMARKS
MEDFORD        NOT AVBL
WAUSAU         LGT RAIN  57  51  80 E9        29.54F
MOSINEE        NOT AVBL
MARSHFIELD     CLOUDY    56  51  84 NE10      29.51F
WISC RAPIDS    CLOUDY    62  52  69 E7        29.50F
STEVENS POINT  NOT AVBL
WAUPACA        NOT AVBL
SHAWANO        NOT AVBL
CLINTONVILLE   NOT AVBL
WAUTOMA        CLOUDY    63  53  70 E6        29.51F
$$

WIZ038-039-048-051-260600-
FOX VALLEY

CITY           SKY/WX    TMP DP  RH WIND       PRES   REMARKS
NWS GREEN BAY  CLOUDY    61  53  75 E9        29.58F
APPLETON       NOT AVBL
OSHKOSH        CLOUDY    63  52  67 SE13      29.53F
FOND DU LAC    CLOUDY    63  50  62 SE17      29.53F
$$

WIZ022-050-052-260600-
EAST CENTRAL WISCONSIN

CITY           SKY/WX    TMP DP  RH WIND       PRES   REMARKS
EPHRAIM        NOT AVBL
WASHINGTON ISL NOT AVBL
STURGEON BAY   CLOUDY    53  47  79 E7        29.63F
MANITOWOC      NOT AVBL
SHEBOYGAN      CLOUDY    53  49  86 NE5       29.58F
$$

LMZ563-521-522-541>543-260600-
LAKESHORE

STATION/POSITION TIME  TEMP    WIND        PRES    VSBY  WAVE
                       AIR SEA DIR/SP/G                  HT/PER
                 (UTC) (F)     (DEG/KT/KT) (MB)    (MI)  (FT/S)
SHEBOYGAN LKSHOR 0400   54      90/  3/  6 1002.3F
KEWAUNEE LKSHORE 0430   48      20/  5/  8 1002.9F
NORTHPORT PIER   0440   43      50/  4/  8 1004.4F
N MID LAKE BUOY  0350   40 37   80/ 10/ 10 1005.6F         1/ 3
CHAMBERS ISLAND  0440   40      10/ 10/ 12 1004.1F
MENOMINEE LKSHOR 0430   43      20/ 13/ 16 1003.0F
$$



USA.gov is the U.S. government's official web portal to all federal, state and local government web resources and services.